• In Hungary
  • List of Countries
  • For 7 days
  • Water Temperature
  • Satellite Maps
  • Weather Map
  • News
  • Weather Widgets
  • user-avatar
    Login

    Hourly Weather Nove Mesto na Morave

    Today, 17 October, Tuesday

    Time Temperature Precipitation Wind Pressure Humidity
    00:00 +11°C° 0 mm 1 mps 713 mmHg 84%
    01:00 +11°C° 0 mm 1 mps 713 mmHg 83%
    02:00 +11°C° 0 mm 1 mps 713 mmHg 82%
    03:00 +10°C° 0 mm 0 mps 713 mmHg 82%
    04:00 +10°C° 0 mm 0 mps 713 mmHg 82%
    05:00 +11°C° 0 mm 1 mps 713 mmHg 81%
    06:00 +11°C° 0 mm 1 mps 713 mmHg 81%
    07:00 +11°C° 0 mm 1 mps 713 mmHg 80%
    08:00 +13°C° 0 mm 1 mps 713 mmHg 73%
    09:00 +15°C° 0 mm 1 mps 713 mmHg 67%
    10:00 +18°C° 0 mm 1 mps 714 mmHg 60%
    11:00 +19°C° 0 mm 1 mps 713 mmHg 57%
    12:00 +19°C° 0 mm 2 mps 713 mmHg 54%
    13:00 +20°C° 0 mm 2 mps 713 mmHg 51%
    14:00 +19°C° 0 mm 2 mps 713 mmHg 55%
    15:00 +19°C° 0 mm 2 mps 712 mmHg 60%
    16:00 +18°C° 0 mm 2 mps 712 mmHg 64%
    17:00 +16°C° 0 mm 2 mps 711 mmHg 70%
    18:00 +14°C° 0 mm 2 mps 711 mmHg 75%
    19:00 +13°C° 0 mm 2 mps 710 mmHg 80%
    20:00 +12°C° 0 mm 2 mps 710 mmHg 82%
    21:00 +12°C° 0 mm 2 mps 710 mmHg 83%
    22:00 +12°C° 0 mm 2 mps 710 mmHg 85%
    23:00 +10°C° 0 mm 2 mps 709 mmHg 86%

    Tomorrow, 18 October, Wednesday

    Time Temperature Precipitation Wind Pressure Humidity
    00:00 +10°C° 0 mm 2 mps 709 mmHg 87%
    01:00 +10°C° 0 mm 2 mps 709 mmHg 88%
    02:00 +9°C° 0 mm 2 mps 708 mmHg 89%
    03:00 +9°C° 0 mm 2 mps 708 mmHg 90%
    04:00 +9°C° 0 mm 2 mps 708 mmHg 91%
    05:00 +9°C° 0 mm 2 mps 708 mmHg 91%
    06:00 +8°C° 0 mm 2 mps 708 mmHg 92%
    07:00 +8°C° 0 mm 2 mps 708 mmHg 92%
    08:00 +10°C° 0 mm 2 mps 708 mmHg 87%
    09:00 +13°C° 0 mm 2 mps 708 mmHg 81%
    10:00 +13°C° 0 mm 3 mps 708 mmHg 75%
    11:00 +14°C° 0 mm 3 mps 707 mmHg 72%
    12:00 +16°C° 0 mm 3 mps 707 mmHg 69%
    13:00 +17°C° 0 mm 3 mps 707 mmHg 65%
    14:00 +16°C° 0 mm 2 mps 707 mmHg 68%
    15:00 +16°C° 0 mm 2 mps 706 mmHg 70%
    16:00 +16°C° 0 mm 1 mps 706 mmHg 72%
    17:00 +14°C° 0 mm 1 mps 706 mmHg 77%
    18:00 +13°C° 0 mm 1 mps 706 mmHg 81%
    19:00 +12°C° 0 mm 1 mps 706 mmHg 86%
    20:00 +11°C° 0 mm 1 mps 706 mmHg 86%
    21:00 +11°C° 0 mm 1 mps 706 mmHg 87%
    22:00 +11°C° 0 mm 1 mps 706 mmHg 87%
    23:00 +10°C° 0 mm 1 mps 706 mmHg 88%

    Day after tomorrow, 19 October, Thursday

    Time Temperature Precipitation Wind Pressure Humidity
    00:00 +10°C° 0 mm 1 mps 705 mmHg 88%
    01:00 +10°C° 0 mm 1 mps 705 mmHg 88%
    02:00 +9°C° 0 mm 1 mps 705 mmHg 89%
    03:00 +9°C° 0 mm 1 mps 705 mmHg 89%
    04:00 +9°C° 0 mm 1 mps 705 mmHg 90%
    05:00 +9°C° 0 mm 1 mps 705 mmHg 90%
    06:00 +9°C° 0 mm 1 mps 705 mmHg 90%
    07:00 +9°C° 0 mm 1 mps 705 mmHg 90%
    08:00 +11°C° 0 mm 1 mps 706 mmHg 83%
    09:00 +13°C° 0 mm 1 mps 706 mmHg 75%
    10:00 +15°C° 0 mm 1 mps 707 mmHg 68%
    11:00 +16°C° 0 mm 1 mps 707 mmHg 63%
    12:00 +18°C° 0 mm 1 mps 707 mmHg 58%
    13:00 +19°C° 0 mm 1 mps 707 mmHg 53%
    14:00 +18°C° 0 mm 1 mps 707 mmHg 56%
    15:00 +16°C° 0 mm 0 mps 706 mmHg 59%
    16:00 +15°C° 0 mm 0 mps 706 mmHg 63%
    17:00 +14°C° 0 mm 0 mps 706 mmHg 67%
    18:00 +12°C° 0 mm 0 mps 706 mmHg 72%
    19:00 +11°C° 0 mm 0 mps 706 mmHg 77%
    20:00 +10°C° 0 mm 0 mps 707 mmHg 78%
    21:00 +10°C° 0 mm 0 mps 707 mmHg 79%
    22:00 +11°C° 0 mm 1 mps 707 mmHg 80%
    23:00 +10°C° 0 mm 1 mps 707 mmHg 81%

    20 October, Friday

    Time Temperature Precipitation Wind Pressure Humidity
    00:00 +10°C° 0 mm 1 mps 707 mmHg 82%
    01:00 +10°C° 0 mm 1 mps 707 mmHg 82%
    02:00 +9°C° 0 mm 1 mps 707 mmHg 83%
    03:00 +9°C° 0 mm 1 mps 707 mmHg 84%
    04:00 +9°C° 0 mm 1 mps 706 mmHg 84%
    05:00 +9°C° 0 mm 1 mps 706 mmHg 84%
    06:00 +9°C° 0 mm 1 mps 707 mmHg 85%
    07:00 +9°C° 0 mm 1 mps 707 mmHg 85%
    08:00 +11°C° 0 mm 1 mps 707 mmHg 79%
    09:00 +13°C° 0 mm 2 mps 707 mmHg 72%
    10:00 +15°C° 0 mm 2 mps 708 mmHg 66%
    11:00 +16°C° 0 mm 2 mps 708 mmHg 63%
    12:00 +17°C° 0 mm 2 mps 708 mmHg 60%
    13:00 +18°C° 0 mm 3 mps 708 mmHg 57%
    14:00 +17°C° 0 mm 2 mps 708 mmHg 61%
    15:00 +16°C° 0 mm 2 mps 707 mmHg 65%
    16:00 +15°C° 0 mm 2 mps 707 mmHg 69%
    17:00 +14°C° 0 mm 2 mps 707 mmHg 73%
    18:00 +13°C° 0 mm 2 mps 707 mmHg 78%
    19:00 +10°C° 0 mm 2 mps 707 mmHg 82%
    20:00 +10°C° 0 mm 2 mps 707 mmHg 83%
    21:00 +10°C° 0 mm 2 mps 708 mmHg 84%
    22:00 +10°C° 0 mm 2 mps 708 mmHg 85%
    23:00 +9°C° 0 mm 2 mps 708 mmHg 85%

    21 October, Saturday

    Time Temperature Precipitation Wind Pressure Humidity
    00:00 +9°C° 0 mm 2 mps 708 mmHg 85%
    01:00 +10°C° 0 mm 1 mps 708 mmHg 85%
    02:00 +10°C° 0 mm 1 mps 708 mmHg 85%
    03:00 +10°C° 0 mm 1 mps 708 mmHg 84%
    04:00 +10°C° 0 mm 1 mps 708 mmHg 84%
    05:00 +10°C° 0 mm 1 mps 707 mmHg 83%
    06:00 +10°C° 0 mm 1 mps 707 mmHg 82%
    07:00 +9°C° 0 mm 2 mps 707 mmHg 81%
    08:00 +12°C° 0 mm 2 mps 708 mmHg 75%
    09:00 +14°C° 0 mm 2 mps 708 mmHg 69%
    10:00 +15°C° 0 mm 2 mps 708 mmHg 63%
    11:00 +16°C° 0 mm 2 mps 708 mmHg 59%
    12:00 +18°C° 0 mm 2 mps 708 mmHg 56%
    13:00 +19°C° 0 mm 3 mps 708 mmHg 53%
    14:00 +18°C° 0 mm 2 mps 707 mmHg 57%
    15:00 +18°C° 0 mm 2 mps 707 mmHg 60%
    16:00 +17°C° 0 mm 2 mps 707 mmHg 64%
    17:00 +16°C° 0 mm 2 mps 707 mmHg 66%
    18:00 +14°C° 0 mm 2 mps 706 mmHg 69%
    19:00 +13°C° 0 mm 2 mps 706 mmHg 72%
    20:00 +13°C° 0 mm 1 mps 706 mmHg 73%
    21:00 +13°C° 0 mm 1 mps 706 mmHg 74%
    22:00 +12°C° 0 mm 1 mps 706 mmHg 74%
    23:00 +12°C° 0 mm 1 mps 706 mmHg 75%

    22 October, Sunday

    Time Temperature Precipitation Wind Pressure Humidity
    00:00 +12°C° 0 mm 1 mps 706 mmHg 76%
    01:00 +12°C° 0 mm 1 mps 705 mmHg 76%
    02:00 +12°C° 0 mm 1 mps 705 mmHg 79%
    03:00 +11°C° 0 mm 1 mps 705 mmHg 82%
    04:00 +11°C° 0 mm 1 mps 705 mmHg 85%
    05:00 +11°C° 0 mm 1 mps 705 mmHg 87%
    06:00 +11°C° 0 mm 1 mps 705 mmHg 89%
    07:00 +11°C° 0 mm 1 mps 704 mmHg 91%
    08:00 +10°C° 0.3 mm 2 mps 705 mmHg 89%
    09:00 +11°C° 0.3 mm 3 mps 705 mmHg 88%
    10:00 +11°C° 0.3 mm 3 mps 705 mmHg 86%
    11:00 +11°C° 1.1 mm 4 mps 705 mmHg 86%
    12:00 +9°C° 1.1 mm 5 mps 705 mmHg 86%
    13:00 +8°C° 1.1 mm 6 mps 705 mmHg 87%
    14:00 +8°C° 0.6 mm 6 mps 705 mmHg 86%
    15:00 +8°C° 0.6 mm 5 mps 705 mmHg 85%
    16:00 +7°C° 0.6 mm 5 mps 705 mmHg 84%
    17:00 +7°C° 0.2 mm 5 mps 705 mmHg 84%
    18:00 +7°C° 0.2 mm 4 mps 706 mmHg 84%
    19:00 +6°C° 0.2 mm 4 mps 706 mmHg 84%
    20:00 +6°C° 0 mm 4 mps 706 mmHg 84%
    21:00 +6°C° 0 mm 4 mps 706 mmHg 84%
    22:00 +6°C° 0 mm 4 mps 706 mmHg 83%
    23:00 +5°C° 0 mm 4 mps 706 mmHg 83%
    Show more